Date,TemperatureHighF,TemperatureAvgF,TemperatureLowF,DewpointHighF,DewpointAvgF,DewpointLowF,HumidityHigh,HumidityAvg,HumidityLow,PressureMaxIn,PressureMinIn,WindSpeedMaxMPH,WindSpeedAvgMPH,GustSpeedMaxMPH,PrecipitationSumIn
2013-1-1,24.5,20.1,12.3,20.1,14.0,5.4,85,77,68,30.22,30.07,20,4,24,0.00
2013-1-2,23.2,14.8,5.2,8.9,5.9,0.4,83,68,50,30.27,30.18,12,2,20,0.00
2013-1-3,31.6,23.9,14.4,25.2,17.2,7.3,79,75,69,30.32,30.17,30,3,32,0.00
2013-1-4,32.5,23.3,12.9,23.7,16.3,7.6,83,75,66,30.35,30.27,15,3,21,0.01
2013-1-5,35.2,29.0,19.1,30.0,23.7,15.4,87,81,69,30.29,30.02,16,3,20,0.00
2013-1-6,36.9,28.8,18.4,30.4,22.6,15.2,87,77,71,30.37,29.96,26,6,26,0.01
2013-1-7,35.5,26.1,16.1,25.8,20.3,12.9,89,79,66,30.40,30.15,24,5,30,0.00
2013-1-8,42.1,34.6,26.3,31.5,26.3,21.6,84,72,58,30.21,30.09,19,5,21,0.00
2013-1-9,50.4,41.3,28.5,35.8,31.4,22.4,80,68,47,30.49,30.09,16,4,21,0.00
2013-1-10,48.3,37.3,27.5,47.2,31.5,21.6,96,80,59,30.47,29.85,15,4,18,0.38
2013-1-11,56.9,54.3,48.6,55.5,49.8,46.9,96,85,75,29.85,29.69,28,8,32,0.18
2013-1-12,59.6,48.7,32.7,51.1,43.7,29.5,92,83,69,29.90,29.75,33,7,35,1.01
2013-1-13,32.9,26.4,16.1,30.7,23.0,9.7,93,87,74,30.29,29.76,29,8,32,0.09
2013-1-14,22.9,18.0,14.3,17.0,12.1,8.4,86,77,73,30.49,30.29,15,3,18,0.00
2013-1-15,29.0,22.9,15.2,20.9,16.7,11.5,85,77,65,30.42,30.10,22,3,22,0.00
2013-1-16,36.9,29.6,19.7,26.1,21.0,16.5,89,72,50,30.10,29.93,17,2,23,0.03
2013-1-17,34.9,29.8,20.2,27.2,21.8,14.8,86,72,56,30.43,30.05,28,6,29,0.02
2013-1-18,38.5,31.0,19.7,28.1,21.9,15.1,85,70,54,30.46,30.05,27,8,33,0.03
2013-1-19,51.7,42.9,36.3,35.9,31.9,27.7,74,66,51,30.07,29.81,22,7,30,0.01
2013-1-20,40.2,23.2,18.3,31.9,10.7,6.6,73,58,50,30.30,29.94,34,8,46,0.00
2013-1-21,19.2,12.9,6.1,11.1,1.0,-7.2,75,59,40,30.34,30.18,33,10,35,0.00
2013-1-22,16.1,10.1,3.4,-1.2,-3.9,-5.9,69,54,38,30.43,30.33,18,6,23,0.00
2013-1-23,26.1,18.6,9.9,13.2,5.8,-1.7,73,57,47,30.36,30.10,30,2,30,0.00
2013-1-24,23.6,17.5,8.4,8.8,3.2,-1.6,69,54,40,30.62,30.28,26,7,29,0.00
2013-1-25,31.5,24.4,18.6,20.9,14.5,2.2,82,67,42,30.35,30.01,17,4,21,0.03
2013-1-26,30.0,23.0,15.1,15.7,12.4,8.3,74,64,49,30.39,30.15,16,3,21,0.00
2013-1-27,42.3,30.5,21.9,40.7,24.3,14.7,95,78,64,30.37,29.95,24,7,27,0.10
2013-1-28,56.6,50.3,42.3,55.8,48.7,40.4,97,94,91,29.96,29.83,23,7,26,0.06
2013-1-29,62.1,58.0,52.8,57.5,55.5,51.1,97,91,80,29.83,29.30,28,11,33,1.18
2013-1-30,52.8,40.8,23.2,51.4,37.5,15.2,100,88,71,29.70,29.23,36,10,41,0.38
2013-1-31,24.0,18.8,7.4,19.7,10.4,-2.2,87,70,60,30.23,29.71,32,14,38,0.00
2013-2-1,20.0,12.5,4.1,10.1,1.9,-4.9,74,62,53,30.44,30.21,28,7,38,0.00
2013-2-2,28.2,21.4,11.7,22.4,15.8,5.6,87,79,65,30.21,29.99,22,5,22,0.00
2013-2-3,25.7,20.1,11.2,19.2,13.4,5.4,89,75,56,30.09,29.97,27,3,33,0.01
2013-2-4,40.1,30.0,22.1,29.4,22.1,15.8,79,73,64,30.05,29.76,23,6,27,0.05
2013-2-5,38.0,31.0,23.9,32.1,25.8,20.4,89,81,75,30.07,29.80,19,4,24,0.01
2013-2-6,39.9,34.4,30.1,28.4,25.5,23.5,78,70,57,30.24,30.07,21,4,21,0.00
2013-2-7,55.9,40.6,30.6,42.6,32.6,25.4,91,75,47,30.11,29.77,26,6,29,0.16
2013-2-8,34.1,30.5,26.6,31.5,26.2,22.1,90,84,80,30.36,29.89,31,10,35,0.00
2013-2-9,41.5,33.7,28.2,27.9,25.0,22.2,88,71,54,30.37,30.07,16,4,16,0.00
2013-2-10,51.9,43.8,35.2,49.1,39.0,24.1,93,84,59,30.08,29.58,33,10,43,0.45
2013-2-11,49.9,37.2,28.4,46.2,27.3,23.1,88,67,59,30.07,29.59,28,8,38,0.00
2013-2-12,34.3,28.8,23.2,26.9,23.8,20.2,89,82,73,30.12,29.91,15,2,17,0.00
2013-2-13,47.7,35.2,26.0,31.8,27.7,23.2,90,76,50,29.92,29.72,22,2,24,0.00
2013-2-14,46.2,37.3,31.5,35.1,30.4,26.8,87,76,64,29.98,29.73,30,6,36,0.00
2013-2-15,33.8,30.6,23.9,29.4,21.7,13.7,86,70,46,30.17,29.96,22,6,25,0.00
2013-2-16,24.7,21.2,16.2,15.9,10.4,5.2,74,63,51,30.18,30.12,25,8,29,0.00
2013-2-17,33.4,23.2,10.5,17.5,9.7,2.6,80,57,36,30.23,30.03,15,4,17,0.00
2013-2-18,52.5,42.1,31.0,44.8,32.7,16.0,92,70,49,30.03,29.46,39,14,43,0.40
2013-2-19,31.6,22.7,17.5,27.9,13.9,7.0,86,69,60,30.20,29.65,37,16,43,0.01
2013-2-20,25.7,18.4,9.5,15.5,9.0,1.2,78,66,55,30.35,30.20,19,7,21,0.00
2013-2-21,29.7,24.8,16.4,26.7,19.0,11.0,91,79,69,30.34,29.86,25,7,27,0.00
2013-2-22,35.0,31.6,27.5,33.4,28.7,21.5,95,89,78,29.98,29.79,24,4,26,0.17
2013-2-23,29.7,26.2,20.2,21.8,19.6,16.4,85,76,66,29.99,29.94,15,3,18,0.03
2013-2-24,39.1,27.6,16.4,25.7,20.3,13.2,89,75,54,30.13,29.98,9,1,15,0.06
2013-2-25,44.2,34.9,25.4,29.9,26.0,21.3,85,71,53,30.13,29.79,27,6,29,0.00
2013-2-26,36.5,34.4,33.1,34.2,31.1,26.6,95,88,68,29.78,29.35,31,8,32,1.19
2013-2-27,33.2,32.4,31.6,31.9,30.6,28.9,95,93,88,29.69,29.47,20,4,21,0.05
2013-2-28,37.2,33.6,31.2,32.2,30.0,26.0,91,87,80,30.01,29.69,25,8,26,0.02
2013-3-1,31.5,29.7,27.3,29.2,25.9,22.8,91,86,79,30.11,29.99,19,7,21,0.00
2013-3-2,30.3,27.4,21.6,25.1,21.7,14.6,88,79,68,30.16,30.09,28,8,28,0.00
2013-3-3,34.1,25.5,17.5,20.0,16.0,12.9,83,68,44,30.15,30.06,17,3,21,0.02
2013-3-4,36.5,30.9,22.4,28.4,22.9,17.9,87,72,56,30.10,29.89,17,4,18,0.02
2013-3-5,35.8,32.9,28.4,31.6,29.2,26.8,95,86,76,29.88,29.69,26,6,36,0.11
2013-3-6,30.1,28.4,27.2,27.5,25.8,24.2,95,90,87,30.30,29.87,28,9,33,0.05
2013-3-7,34.0,29.9,25.8,28.8,25.6,22.2,89,84,74,30.40,30.29,9,2,9,0.14
2013-3-8,42.5,33.1,22.5,29.2,25.4,19.7,90,74,55,30.46,30.28,13,2,17,0.01
2013-3-9,53.6,43.7,33.4,37.1,30.9,25.9,75,61,44,30.28,29.81,25,7,30,0.03
2013-3-10,62.4,56.4,52.2,51.0,42.6,34.4,90,61,48,29.81,29.60,35,12,38,0.03
2013-3-11,53.3,40.1,33.1,49.7,36.6,27.6,92,87,81,29.86,29.56,20,5,26,0.06
2013-3-12,41.5,33.9,28.7,32.1,25.9,18.8,88,73,54,30.06,29.86,29,9,33,0.02
2013-3-13,34.0,28.3,24.4,19.5,17.9,15.8,77,65,50,30.35,30.06,27,9,30,0.00
2013-3-14,38.5,29.6,22.1,30.1,23.6,17.7,91,79,51,30.35,30.10,10,2,15,0.02
2013-3-15,52.8,40.3,27.6,42.2,34.5,25.1,92,80,65,30.10,29.63,14,2,14,0.04
2013-3-16,45.8,37.6,31.9,39.0,32.7,25.8,95,83,71,30.06,29.56,31,8,33,0.00
2013-3-17,39.9,34.3,30.9,28.5,25.4,22.8,80,70,58,30.13,29.88,23,9,24,0.00
2013-3-18,39.2,34.8,26.9,36.7,30.9,17.4,93,86,67,29.88,29.58,27,7,30,0.09
2013-3-19,40.8,30.4,22.5,19.0,15.8,10.7,72,55,34,30.11,29.88,36,12,38,0.00
2013-3-20,28.8,25.3,20.2,18.7,10.7,3.7,73,55,36,30.12,30.03,33,10,39,0.00
2013-3-21,34.3,24.6,14.8,15.9,10.8,7.6,79,57,34,30.07,29.99,19,4,23,0.00
2013-3-22,43.6,31.8,18.9,21.8,15.7,12.4,81,54,29,30.05,29.97,12,2,14,0.00
2013-3-23,47.0,38.6,31.9,25.9,22.6,19.3,71,53,37,30.06,29.89,21,5,21,0.00
2013-3-24,34.6,31.4,29.5,29.7,27.4,23.2,95,85,71,29.90,29.49,29,12,38,0.04
2013-3-25,33.4,30.4,27.8,30.6,28.1,25.5,95,91,80,30.05,29.58,31,12,32,0.28
2013-3-26,39.5,33.7,29.0,27.4,25.4,21.6,83,72,53,30.26,30.05,23,6,23,0.14
2013-3-27,41.5,35.0,28.2,26.0,23.6,18.8,84,64,41,30.33,30.26,18,4,21,0.00
2013-3-28,47.9,36.8,24.8,28.8,25.2,20.1,85,64,42,30.35,30.27,14,2,20,0.00
2013-3-29,55.1,43.7,32.4,33.7,31.0,26.1,85,63,40,30.28,30.18,12,2,12,0.00
2013-3-30,57.5,46.1,32.2,40.1,33.9,29.0,90,65,40,30.19,29.83,18,3,20,0.00
2013-3-31,61.6,50.6,40.2,44.0,40.4,30.5,91,70,45,29.86,29.70,27,7,31,0.05
2013-4-1,43.5,37.7,31.8,30.5,21.0,13.9,69,52,31,30.16,29.86,36,9,38,0.00
2013-4-2,45.8,35.1,24.8,19.9,16.1,9.7,76,48,24,30.29,30.16,22,6,26,0.00
2013-4-3,47.9,36.9,24.7,22.5,17.8,13.2,73,48,27,30.41,30.27,22,3,23,0.00
2013-4-4,58.3,44.0,29.7,24.5,20.9,14.8,72,43,22,30.28,29.96,17,2,17,0.00
2013-4-5,58.0,46.6,36.3,36.6,26.5,16.4,75,49,23,30.12,29.96,23,7,24,0.00
2013-4-6,71.1,56.2,39.1,39.7,32.6,23.9,65,43,27,30.08,29.66,31,11,38,0.00
2013-4-7,71.9,61.0,51.1,44.5,40.8,35.6,71,49,27,29.88,29.65,16,4,45,0.02
2013-4-8,74.9,65.3,57.0,58.1,54.1,40.2,87,68,51,29.87,29.69,20,6,30,0.02
2013-4-9,77.6,68.4,58.1,60.4,57.0,52.9,84,68,47,29.88,29.78,23,5,35,0.00
2013-4-10,72.3,60.4,45.2,64.3,55.2,42.4,94,84,69,29.81,29.60,26,7,32,0.65
2013-4-11,62.1,51.6,40.5,60.4,49.4,33.9,95,92,77,29.74,29.53,20,4,30,0.27
2013-4-12,43.2,40.3,37.8,35.2,33.0,29.3,81,75,69,29.90,29.61,22,5,30,0.00
2013-4-13,50.4,43.5,38.8,36.5,32.8,27.5,81,67,51,29.99,29.89,18,5,35,0.00
2013-4-14,74.0,58.3,41.2,46.6,41.0,35.2,83,56,28,29.95,29.66,23,8,38,0.00
2013-4-15,66.4,59.7,50.2,58.7,52.1,45.7,90,76,56,29.89,29.70,23,8,29,0.14
2013-4-16,52.0,48.4,44.9,47.1,44.3,39.2,93,86,72,30.18,29.85,21,7,29,1.11
2013-4-17,73.7,54.8,45.1,65.5,49.6,38.0,95,83,72,30.16,29.71,33,6,36,0.45
2013-4-18,70.8,61.7,43.1,64.2,58.2,40.4,95,89,77,29.71,29.48,23,8,36,2.04
2013-4-19,42.9,38.8,36.9,39.9,31.0,26.9,89,73,64,29.97,29.57,24,9,36,0.01
2013-4-20,46.4,38.9,30.4,30.5,26.3,22.7,82,62,42,30.38,29.97,15,4,23,0.00
2013-4-21,55.0,44.1,33.7,34.4,28.5,23.0,72,56,38,30.49,30.30,17,4,24,0.00
2013-4-22,67.1,54.6,37.9,40.9,33.0,28.6,73,47,24,30.30,30.01,14,3,20,0.00
2013-4-23,62.6,55.2,40.5,55.0,46.8,38.1,93,75,54,30.01,29.75,25,5,38,0.88
2013-4-24,49.8,41.5,36.5,38.5,34.2,29.4,92,77,46,30.19,29.84,24,7,29,0.19
2013-4-25,54.1,45.3,37.6,35.5,30.4,23.4,82,59,34,30.32,30.14,24,6,36,0.00
2013-4-26,64.0,51.4,36.2,43.2,37.8,31.5,85,62,42,30.38,30.25,16,3,25,0.00
2013-4-27,63.1,53.8,44.3,51.9,44.8,38.9,93,74,42,30.27,29.90,13,2,24,0.27
2013-4-28,59.6,56.2,53.6,55.2,53.4,51.6,95,91,82,29.90,29.79,12,1,14,0.13
2013-4-29,71.3,61.4,50.4,55.4,52.2,48.3,93,73,54,29.93,29.78,20,4,23,0.00
2013-4-30,81.6,69.7,58.3,60.7,55.5,50.5,76,62,45,29.91,29.81,17,6,27,0.00
2013-5-1,82.2,71.9,58.0,57.5,53.7,46.4,82,56,29,30.06,29.91,15,3,21,0.00
2013-5-2,80.9,65.4,47.6,60.9,54.3,43.9,88,70,40,30.07,29.95,16,4,23,0.15
2013-5-3,73.3,59.6,45.7,60.2,51.8,41.4,92,77,53,30.00,29.78,18,4,28,0.14
2013-5-4,65.5,59.3,53.9,57.3,53.0,48.4,92,81,57,29.97,29.82,10,2,17,0.08
2013-5-5,66.0,58.6,52.6,55.6,51.7,49.1,96,79,59,29.96,29.86,10,2,20,0.04
2013-5-6,69.4,62.5,55.6,54.0,50.9,47.1,79,66,54,29.92,29.84,16,4,20,0.00
2013-5-7,75.6,64.4,55.1,55.6,51.1,45.5,83,64,41,29.97,29.89,12,2,15,0.00
2013-5-8,80.2,67.0,52.3,57.6,52.7,48.2,87,63,37,29.97,29.88,6,1,9,0.00
2013-5-9,72.7,61.8,55.3,61.1,57.4,52.4,94,86,61,29.97,29.77,9,1,20,0.88
2013-5-10,66.5,57.6,45.7,60.0,54.0,41.2,95,88,77,29.92,29.75,16,5,23,0.00
2013-5-11,65.3,52.5,45.4,54.7,39.8,27.2,90,66,27,30.02,29.84,28,5,36,0.00
2013-5-12,58.0,47.9,39.5,33.2,28.2,22.1,71,49,27,30.11,30.02,16,5,29,0.00
2013-5-13,68.1,53.8,36.0,39.7,31.6,23.7,85,48,21,30.16,30.02,13,2,20,0.00
2013-5-14,86.0,70.5,53.6,61.5,51.3,37.2,68,51,39,30.02,29.68,12,4,21,0.00
2013-5-15,88.0,78.0,69.9,62.8,56.9,51.5,68,49,35,29.78,29.69,14,3,30,0.00
2013-5-16,83.8,73.8,64.7,63.0,57.2,45.5,82,59,28,29.88,29.73,9,1,14,0.00
2013-5-17,81.1,71.2,61.5,65.5,60.1,54.6,92,70,45,29.94,29.87,13,2,20,0.00
2013-5-18,78.6,69.7,61.2,64.2,61.1,58.2,92,75,56,29.98,29.85,7,1,14,0.00
2013-5-19,87.6,75.1,61.6,70.0,64.5,59.1,93,72,45,29.89,29.71,15,2,21,0.00
2013-5-20,86.5,78.2,72.1,69.8,65.3,58.3,84,66,45,29.81,29.66,16,4,30,0.00
2013-5-21,83.1,73.2,62.6,67.3,63.0,59.9,92,72,49,29.75,29.62,15,5,30,0.21
2013-5-22,76.5,68.6,61.8,64.3,59.9,54.7,88,75,49,29.73,29.58,9,3,25,0.08
2013-5-23,64.0,54.9,42.9,57.2,48.8,34.5,90,80,71,30.20,29.73,26,8,30,0.02
2013-5-24,67.8,52.0,37.8,41.3,36.5,32.2,85,59,27,30.36,30.20,18,5,23,0.00
2013-5-25,62.9,53.3,44.6,51.2,41.0,33.6,88,65,36,30.35,30.17,9,1,12,0.11
2013-5-26,67.5,58.3,50.1,55.5,49.5,44.6,90,73,60,30.25,30.02,10,2,18,0.06
2013-5-27,79.6,64.5,57.8,68.3,60.3,55.1,94,87,67,30.04,29.76,9,2,18,0.48
2013-5-28,81.4,72.3,63.5,69.0,64.6,60.8,95,78,63,29.85,29.74,14,4,25,0.01
2013-5-29,85.2,76.8,67.8,68.1,62.9,56.6,81,64,42,29.90,29.82,12,4,27,0.00
2013-5-30,84.3,76.6,67.8,68.3,65.3,61.5,90,69,53,29.91,29.79,20,6,32,0.24
2013-5-31,76.7,70.4,63.5,70.0,66.0,61.4,93,86,76,29.88,29.72,16,3,23,0.50
2013-6-1,73.3,66.7,61.0,64.9,62.4,58.5,95,86,73,29.79,29.66,15,3,23,0.73
2013-6-2,65.6,60.3,53.6,60.5,56.3,47.8,95,87,77,29.99,29.73,16,4,23,0.02
2013-6-3,68.3,57.9,48.3,48.4,45.9,43.0,83,66,45,30.07,29.96,14,4,18,0.00
2013-6-4,74.7,61.4,49.6,52.9,49.1,45.9,88,67,40,30.09,29.98,8,1,14,0.00
2013-6-5,80.8,69.0,56.9,58.3,54.1,50.6,81,61,40,30.00,29.79,8,1,14,0.00
2013-6-6,80.7,69.6,61.2,57.9,53.7,49.3,72,58,41,29.79,29.71,14,3,21,0.01
2013-6-7,72.7,63.2,57.3,61.9,55.7,49.0,84,77,59,29.85,29.76,9,3,14,0.00
2013-6-8,79.2,65.7,48.9,56.6,51.1,44.3,85,62,37,29.92,29.84,7,1,9,0.00
2013-6-9,80.3,71.0,61.8,63.9,58.9,53.8,87,68,41,29.92,29.73,10,2,23,0.01
2013-6-10,81.4,71.2,62.6,64.5,61.3,56.7,95,73,46,29.81,29.68,10,2,17,0.22
2013-6-11,85.3,74.1,60.4,68.3,62.5,56.5,88,69,41,29.89,29.76,7,1,14,0.00
2013-6-12,92.7,82.2,69.2,74.0,70.0,66.5,92,69,45,29.83,29.53,12,2,21,0.00
2013-6-13,85.1,72.0,62.6,70.3,59.2,50.0,88,66,39,29.95,29.53,26,9,31,0.00
2013-6-14,82.0,68.3,55.3,59.1,54.4,50.7,86,64,35,30.05,29.92,12,3,16,0.00
2013-6-15,84.1,71.7,61.6,66.7,61.2,57.2,87,71,45,30.02,29.83,19,1,28,0.02
2013-6-16,81.2,72.7,66.3,69.2,66.3,62.1,92,81,64,29.92,29.84,30,2,39,0.15
2013-6-17,88.2,76.4,67.9,72.2,65.0,55.2,95,71,34,29.89,29.79,7,1,8,0.00
2013-6-18,86.1,73.5,63.7,63.7,60.8,55.8,90,67,38,29.94,29.81,23,5,24,0.00
2013-6-19,84.5,72.3,61.0,63.1,59.0,55.0,86,65,42,30.03,29.93,9,2,9,0.00
2013-6-20,86.7,76.5,65.6,66.1,61.7,58.3,81,62,42,30.09,30.01,12,1,15,0.00
2013-6-21,88.4,75.8,67.9,70.0,65.2,61.5,87,71,51,30.08,29.90,26,3,29,0.01
2013-6-22,84.3,72.7,67.1,73.0,67.3,63.6,91,83,63,30.08,29.93,25,2,25,0.19
2013-6-23,82.2,73.6,66.3,71.3,67.0,63.9,94,81,64,30.02,29.92,14,2,18,0.13
2013-6-24,86.5,74.8,66.4,74.2,68.0,60.9,93,80,58,30.05,29.86,26,2,29,0.05
2013-6-25,89.9,76.5,67.3,74.8,69.6,64.8,93,81,57,29.92,29.77,25,2,39,1.11
2013-6-26,81.6,74.0,67.4,74.3,69.3,65.6,94,86,71,29.82,29.64,9,2,14,0.12
2013-6-27,90.5,79.9,70.8,74.8,69.8,64.5,95,73,48,29.73,29.63,21,4,24,0.00
2013-6-28,85.3,74.6,65.3,65.9,62.3,54.6,92,68,38,29.67,29.54,29,4,30,0.10
2013-6-29,73.5,67.1,63.1,65.9,63.2,60.7,94,88,73,29.64,29.52,18,3,21,0.05
2013-6-30,73.5,67.6,63.9,63.4,61.3,58.0,94,81,60,29.84,29.64,26,9,29,0.01
2013-7-1,76.1,68.0,64.2,63.6,59.4,54.4,88,75,58,29.92,29.83,27,9,32,0.35
2013-7-2,67.4,63.8,61.5,61.6,59.0,56.2,89,84,75,29.98,29.90,19,6,21,0.03
2013-7-3,74.4,67.0,62.0,65.6,62.1,58.8,94,85,65,30.04,29.94,11,1,17,0.02
2013-7-4,79.9,69.2,58.0,63.8,59.8,56.0,95,74,50,30.07,29.99,11,0,14,0.00
2013-7-5,82.8,73.3,64.7,68.3,64.7,60.7,95,76,56,30.05,29.96,6,1,8,0.00
2013-7-6,75.3,71.6,67.8,68.9,67.3,65.5,93,87,79,30.01,29.94,8,0,9,0.00
2013-7-7,84.7,75.0,65.0,71.5,67.7,63.2,95,80,59,30.01,29.91,8,1,10,0.00
2013-7-8,86.5,78.4,72.0,73.6,70.7,67.9,87,78,61,30.02,29.92,9,1,12,0.00
2013-7-9,90.7,81.6,74.7,77.3,73.5,70.2,89,77,60,29.96,29.83,11,0,17,0.01
2013-7-10,85.5,77.4,68.3,75.6,70.4,61.0,93,80,58,29.95,29.75,22,4,29,0.34
2013-7-11,80.1,70.9,61.5,61.0,57.4,54.2,82,64,44,30.01,29.92,19,4,20,0.00
2013-7-12,82.8,69.6,54.5,62.3,57.1,51.3,90,67,39,30.08,29.99,16,2,16,0.00
2013-7-13,84.0,73.4,59.5,65.8,61.9,56.6,91,69,48,30.08,29.99,16,1,21,0.00
2013-7-14,88.8,78.6,66.8,71.4,67.7,62.4,87,70,52,30.11,30.03,8,0,9,0.00
2013-7-15,88.6,80.4,72.3,73.1,71.3,69.2,91,75,59,30.19,30.10,8,1,14,0.00
2013-7-16,92.7,81.4,70.8,73.4,70.4,67.9,93,72,46,30.26,30.18,10,0,11,0.00
2013-7-17,94.0,82.6,71.8,75.2,71.1,67.9,91,71,45,30.26,30.11,10,0,10,0.00
2013-7-18,93.6,83.5,72.8,75.9,73.3,70.2,93,73,52,30.13,29.93,10,0,14,0.00
2013-7-19,92.7,84.0,76.0,75.4,73.2,71.4,87,71,53,29.93,29.75,10,1,15,0.00
2013-7-20,84.9,77.0,69.1,75.9,71.1,66.0,94,82,66,29.86,29.74,9,1,11,0.60
2013-7-21,79.4,73.7,68.6,71.5,69.3,66.2,95,86,75,29.90,29.78,8,0,9,0.00
2013-7-22,84.7,75.2,68.8,71.1,69.1,67.0,94,82,59,29.79,29.70,9,1,9,0.80
2013-7-23,84.9,74.7,63.4,70.1,65.5,54.8,93,74,53,29.87,29.66,26,6,27,0.03
2013-7-24,74.4,65.0,56.2,54.8,52.0,49.2,80,64,42,29.98,29.86,20,6,21,0.00
2013-7-25,79.0,66.5,52.9,59.4,54.7,49.7,90,68,43,30.06,29.97,9,1,11,0.00
2013-7-26,78.1,68.0,60.4,64.9,61.2,56.2,91,80,55,30.01,29.83,9,1,11,0.03
2013-7-27,72.8,65.4,53.5,65.1,55.3,47.3,91,71,45,29.91,29.82,17,4,23,0.00
2013-7-28,73.2,62.4,51.1,54.8,50.5,46.7,86,67,45,29.99,29.88,20,2,35,0.00
2013-7-29,78.5,65.6,52.0,59.4,53.9,49.5,93,69,40,30.11,29.98,10,1,17,0.00
2013-7-30,69.6,66.7,61.0,66.2,61.8,57.4,93,84,73,30.12,29.99,6,0,8,0.12
2013-7-31,77.2,70.1,65.5,70.5,66.8,62.9,96,90,75,30.00,29.88,12,1,15,0.01
2013-8-1,82.0,71.9,62.6,65.8,59.0,53.5,94,68,41,29.95,29.89,17,3,24,0.00
2013-8-2,82.0,71.7,61.3,69.4,63.6,55.4,89,76,62,29.91,29.84,12,1,17,0.05
2013-8-3,82.0,72.8,62.0,68.7,63.5,56.5,95,75,46,30.03,29.87,16,4,21,0.79
2013-8-4,79.9,68.4,56.3,60.7,56.2,52.6,90,68,43,30.12,30.03,11,1,11,0.00
2013-8-5,79.0,70.5,60.1,63.2,60.3,57.2,92,71,51,30.04,29.83,10,0,11,0.00
2013-8-6,82.6,73.7,67.9,70.9,67.2,62.5,88,80,65,29.86,29.78,8,0,9,0.00
2013-8-7,84.3,75.8,69.8,74.2,71.1,67.7,93,86,71,29.83,29.76,6,0,10,0.00
2013-8-8,76.7,72.9,68.8,71.2,68.5,61.1,93,86,77,29.89,29.81,19,3,21,0.03
2013-8-9,82.2,72.3,61.6,64.3,61.1,57.4,89,70,44,29.98,29.88,12,2,12,0.00
2013-8-10,84.5,74.6,67.1,68.5,63.5,57.2,88,70,41,30.03,29.98,14,2,15,0.00
2013-8-11,83.2,71.1,58.6,65.3,60.8,55.7,91,72,45,30.06,29.99,10,2,14,0.00
2013-8-12,84.0,73.8,64.7,71.1,65.7,61.7,91,77,55,30.00,29.80,11,0,11,0.07
2013-8-13,74.7,67.2,55.1,66.7,57.4,47.7,93,73,45,30.08,29.81,23,6,26,0.01
2013-8-14,70.6,60.2,49.2,52.3,49.7,46.1,90,70,47,30.17,30.08,17,2,17,0.00
2013-8-15,74.2,62.9,51.1,56.5,51.9,48.6,91,70,44,30.14,30.04,12,1,12,0.00
2013-8-16,77.6,68.0,60.1,58.8,55.1,48.8,85,66,39,30.11,30.05,16,1,17,0.00
2013-8-17,79.9,68.5,58.4,59.2,56.5,53.5,87,68,41,30.16,30.07,10,1,10,0.00
2013-8-18,82.6,70.6,58.3,65.2,60.6,54.5,89,72,51,30.12,30.02,9,0,11,0.00
2013-8-19,84.5,72.7,61.3,67.1,62.9,59.0,93,74,49,30.07,29.98,9,0,9,0.00
2013-8-20,87.0,74.8,64.2,67.7,64.7,61.5,93,73,48,30.07,29.98,9,0,11,0.00
2013-8-21,88.8,76.8,66.3,70.5,66.7,63.6,93,73,47,30.06,29.94,9,1,14,0.00
2013-8-22,82.6,74.1,69.6,69.2,66.2,64.7,87,77,61,30.06,29.94,23,3,25,0.00
2013-8-23,82.8,72.5,65.0,67.0,64.8,62.8,93,78,55,30.08,30.00,10,2,14,0.00
2013-8-24,86.1,73.7,61.3,64.7,60.2,56.3,91,66,38,30.19,30.08,10,0,10,0.00
2013-8-25,87.2,74.2,60.4,65.3,60.1,55.8,88,64,38,30.22,30.12,9,1,9,0.00
2013-8-26,89.5,77.3,66.0,73.8,67.0,59.7,90,72,49,30.14,29.98,7,1,9,0.00
2013-8-27,91.4,80.9,72.0,74.4,70.6,68.0,90,72,52,29.99,29.85,14,1,21,0.00
2013-8-28,93.4,81.3,72.3,75.0,70.1,65.7,87,70,50,29.93,29.83,22,4,23,0.00
2013-8-29,88.6,76.7,70.9,73.1,69.2,66.2,93,79,49,30.00,29.90,12,1,14,0.00
2013-8-30,94.3,79.4,66.6,75.9,70.0,64.2,93,75,50,29.90,29.72,35,2,51,0.65
2013-8-31,92.7,75.4,66.9,77.1,68.9,64.4,93,82,58,29.77,29.62,17,1,18,0.14
2013-9-1,79.0,72.7,69.4,72.0,69.0,67.3,93,89,76,29.74,29.67,8,0,9,0.01
2013-9-2,83.0,73.3,64.3,69.0,63.5,57.3,93,74,43,29.89,29.70,18,4,20,0.00
2013-9-3,76.3,65.5,55.7,59.3,56.0,53.1,92,73,46,30.03,29.89,15,1,15,0.00
2013-9-4,82.8,67.9,53.6,61.9,57.9,51.3,94,73,44,30.10,30.00,10,1,10,0.00
2013-9-5,87.0,72.2,59.3,65.5,61.0,57.0,93,71,44,30.13,30.05,11,1,14,0.00
2013-9-6,85.9,73.0,62.1,66.0,61.1,55.1,84,68,48,30.14,29.97,5,0,9,0.00
2013-9-7,88.2,75.6,64.5,67.5,64.7,61.0,92,71,42,29.99,29.85,13,1,18,0.00
2013-9-8,85.7,76.6,68.6,71.4,68.1,65.1,90,76,58,29.90,29.84,6,0,8,0.00
2013-9-9,93.8,80.8,69.9,75.2,70.6,67.8,93,73,46,29.88,29.79,14,1,15,0.00
2013-9-10,96.1,82.9,72.5,73.3,69.6,62.3,91,67,34,30.00,29.87,16,1,18,0.00
2013-9-11,94.9,81.8,72.0,70.7,66.2,58.1,90,63,31,30.03,29.91,17,2,20,0.00
2013-9-12,85.3,73.5,62.6,68.7,62.2,47.0,91,71,33,29.97,29.82,20,4,30,0.03
2013-9-13,69.1,61.2,51.4,56.2,49.2,43.3,86,66,43,30.08,29.97,23,6,24,0.00
2013-9-14,72.5,57.5,45.5,46.2,42.5,35.0,90,62,27,30.15,30.00,10,1,11,0.00
2013-9-15,76.5,62.4,50.2,59.8,51.1,44.6,91,69,38,30.04,29.92,6,1,12,0.07
2013-9-16,66.3,60.3,52.8,58.6,53.6,48.7,92,79,62,30.25,30.03,7,2,15,0.00
2013-9-17,74.2,63.4,50.2,56.4,52.4,47.4,90,69,45,30.26,30.05,8,1,8,0.01
2013-9-18,83.4,71.3,61.6,67.1,61.5,55.4,86,72,55,30.05,29.90,10,2,10,0.00
2013-9-19,87.0,76.8,69.3,72.1,69.2,66.8,95,79,55,29.95,29.78,15,3,15,0.26
2013-9-20,77.6,69.9,59.6,69.8,65.7,53.3,93,87,77,29.82,29.74,8,2,8,0.42
2013-9-21,70.4,60.4,52.8,53.3,49.1,44.1,90,69,41,29.87,29.75,18,5,18,0.00
2013-9-22,71.8,58.3,46.0,51.6,47.1,43.5,92,69,41,29.98,29.88,8,2,12,0.00
2013-9-23,73.0,59.9,47.0,50.4,46.7,43.6,89,65,36,30.04,29.95,10,1,10,0.00
2013-9-24,76.8,64.3,49.4,58.9,52.5,45.3,87,67,49,29.99,29.82,11,1,11,0.00
2013-9-25,79.6,66.3,55.4,60.4,54.1,49.1,80,66,46,29.87,29.79,11,2,11,0.00
2013-9-26,80.3,65.0,52.5,56.4,50.7,44.5,88,64,29,30.00,29.86,7,1,7,0.00
2013-9-27,81.2,66.3,52.6,58.5,53.1,49.4,90,66,36,30.11,29.99,8,1,8,0.00
2013-9-28,82.8,69.1,54.7,61.5,55.3,51.5,91,65,39,30.06,29.90,12,2,15,0.00
2013-9-29,73.3,64.5,55.0,60.4,54.5,49.6,92,72,45,29.97,29.89,17,3,17,0.16
2013-9-30,75.4,61.8,49.8,60.2,54.8,46.8,93,79,50,29.96,29.84,12,1,12,0.01
2013-10-1,80.7,69.2,61.6,65.1,62.4,59.1,93,80,56,29.98,29.88,8,1,8,0.00
2013-10-2,72.8,68.5,63.9,68.3,65.7,60.9,95,91,85,30.03,29.93,5,0,5,0.00
2013-10-3,81.8,71.9,64.5,72.9,65.6,62.1,95,82,57,29.94,29.81,18,2,18,0.58
2013-10-4,83.8,73.0,64.5,71.1,66.4,62.1,93,81,56,29.94,29.87,8,1,8,1.48
2013-10-5,78.5,70.0,65.2,72.3,67.3,62.8,95,91,74,29.91,29.72,22,2,22,3.38
2013-10-6,66.4,56.6,47.9,64.9,47.9,36.6,95,75,44,29.78,29.66,28,3,28,0.06
2013-10-7,67.4,53.1,43.8,49.1,45.2,41.4,93,77,42,30.08,29.76,17,3,17,0.06
2013-10-8,73.9,58.6,46.1,54.8,48.1,43.3,92,72,38,30.18,30.08,8,1,8,0.00
2013-10-9,72.8,57.8,44.5,51.4,47.0,41.7,91,71,37,30.19,30.08,8,1,8,0.00
2013-10-10,76.0,61.5,48.9,60.5,52.9,46.7,94,76,48,30.13,29.99,7,0,7,0.00
2013-10-11,76.1,63.4,52.2,59.5,53.5,49.8,93,73,46,30.04,29.92,12,1,12,0.00
2013-10-12,76.0,64.8,54.5,61.8,55.8,47.0,87,73,56,30.11,29.94,10,2,10,0.00
2013-10-13,69.8,56.7,45.5,47.1,38.6,29.8,81,55,25,30.33,30.11,13,3,13,0.00
2013-10-14,67.8,52.8,40.8,47.3,41.6,37.3,90,69,34,30.33,30.08,7,1,8,0.00
2013-10-15,64.5,59.3,50.2,61.8,54.3,43.9,93,84,74,30.08,29.80,12,2,12,0.06
2013-10-16,58.0,50.3,43.8,53.2,43.7,40.6,90,78,66,29.94,29.85,17,2,17,0.00
2013-10-17,56.9,47.6,42.8,46.3,41.8,38.3,92,81,50,29.93,29.83,13,1,16,0.05
2013-10-18,57.6,48.1,42.9,46.2,41.1,38.8,87,77,63,29.96,29.86,18,3,18,0.00
2013-10-19,54.4,46.7,40.8,42.7,37.5,32.1,92,72,44,29.92,29.83,22,3,22,0.23
2013-10-20,66.1,53.3,39.9,44.2,39.5,35.0,84,61,39,29.91,29.78,23,5,23,0.00
2013-10-21,54.4,47.7,34.0,44.2,37.4,25.1,82,68,50,30.00,29.83,18,4,18,0.00
2013-10-22,48.2,37.8,28.7,38.6,31.8,24.5,92,80,54,30.01,29.82,22,3,22,0.51
2013-10-23,43.6,38.4,32.9,34.7,32.3,29.8,92,80,60,30.05,29.84,19,5,19,0.01
2013-10-24,41.3,37.5,32.7,33.4,29.7,23.8,90,74,51,30.31,30.03,21,4,21,0.09
2013-10-25,50.4,38.4,26.9,29.8,25.9,22.4,84,63,39,30.44,30.16,19,2,19,0.00
2013-10-26,57.8,45.1,36.2,38.6,30.9,25.5,77,58,37,30.16,29.87,26,6,26,0.00
2013-10-27,55.9,41.3,29.4,36.5,29.6,26.4,90,67,34,30.08,29.99,15,1,15,0.00
2013-10-28,60.9,44.8,31.2,39.0,32.3,28.3,91,66,31,30.26,30.04,7,0,7,0.00
2013-10-29,56.5,47.2,37.5,47.7,41.0,33.7,90,79,65,30.29,30.11,7,0,7,0.02
2013-10-30,66.3,58.5,50.5,63.1,56.2,47.7,95,92,89,30.10,29.81,14,2,18,0.03
2013-10-31,64.8,59.7,48.5,61.7,57.9,46.0,95,94,89,29.81,29.24,29,7,29,1.78
2013-11-1,52.8,48.3,44.5,46.7,43.1,40.2,93,83,67,29.74,29.45,27,5,27,0.00
2013-11-2,49.2,43.6,35.6,41.0,38.1,32.6,91,81,68,30.12,29.74,16,3,19,0.00
2013-11-3,53.2,41.9,30.6,40.2,33.2,28.6,93,73,45,30.29,30.11,8,1,8,0.01
2013-11-4,57.6,50.2,43.1,42.4,38.5,33.6,71,65,49,30.24,30.14,21,5,21,0.00
2013-11-5,59.0,53.9,49.8,48.1,45.4,41.9,91,73,59,30.28,29.99,22,4,22,0.04
2013-11-6,59.5,44.8,37.5,49.8,39.6,30.7,92,82,61,30.15,29.92,17,8,17,0.25
2013-11-7,47.6,37.3,28.8,34.6,29.2,25.4,89,74,53,30.28,30.15,23,4,23,0.00
2013-11-8,50.5,40.9,28.7,33.6,29.0,25.6,90,65,43,30.34,30.04,18,3,18,0.00
2013-11-9,62.0,51.1,42.9,42.0,36.1,29.3,67,57,42,30.12,29.93,19,6,22,0.00
2013-11-10,47.4,40.7,32.5,35.6,30.5,27.9,83,67,50,30.35,30.12,17,5,17,0.00
2013-11-11,51.7,38.9,27.9,40.7,33.2,23.1,92,81,61,30.41,30.07,25,9,25,0.09
2013-11-12,32.2,25.9,21.3,24.4,19.2,16.1,83,76,63,30.69,30.41,22,8,22,0.03
2013-11-13,38.3,28.7,18.6,21.5,18.4,14.8,86,67,46,30.64,30.27,15,4,15,0.01
2013-11-14,51.7,40.0,28.7,25.7,22.6,19.3,71,52,30,30.27,30.01,21,8,21,0.00
2013-11-15,53.5,46.1,39.6,39.2,30.3,24.5,82,55,41,30.04,29.94,22,6,22,0.00
2013-11-16,62.0,54.7,44.5,58.4,49.8,39.3,93,84,69,29.95,29.62,29,13,29,0.13
2013-11-17,68.3,58.9,42.2,62.9,53.0,37.1,92,81,59,29.85,29.23,31,11,47,0.11
2013-11-18,49.4,42.2,32.4,37.8,30.7,24.2,83,65,41,30.23,29.86,32,11,32,0.00
2013-11-19,43.5,34.8,26.1,29.7,26.7,21.8,86,73,55,30.35,30.23,13,3,13,0.00
2013-11-20,48.0,39.2,30.3,36.8,29.5,25.3,82,69,55,30.27,30.07,15,4,16,0.02
2013-11-21,49.1,47.3,44.2,47.4,43.0,34.9,95,86,59,30.16,30.09,14,4,14,0.62
2013-11-22,48.5,39.9,29.7,47.1,36.8,26.0,95,89,77,30.46,30.13,24,7,24,0.06
2013-11-23,29.5,23.8,15.6,25.8,15.1,6.0,86,70,56,30.70,30.43,38,11,38,0.00
2013-11-24,26.0,18.6,11.6,10.8,6.4,1.6,76,60,37,30.74,30.44,16,4,16,0.00
2013-11-25,32.8,27.5,19.7,20.5,15.2,7.7,64,59,55,30.44,30.14,16,3,16,0.00
2013-11-26,38.8,33.1,30.6,27.6,23.1,20.2,75,67,60,30.15,29.97,21,4,21,0.01
2013-11-27,30.6,24.5,13.6,23.0,13.4,5.1,73,63,42,30.29,30.07,25,6,25,0.00
2013-11-28,38.2,27.2,18.9,19.7,14.8,11.0,71,60,44,30.46,30.18,16,4,16,0.00
2013-11-29,37.5,29.8,17.0,21.9,18.8,12.5,82,64,49,30.61,30.41,14,2,14,0.00
2013-11-30,51.1,40.1,29.1,30.6,25.7,20.2,72,57,41,30.41,30.06,18,5,18,0.00
2013-12-1,48.6,38.6,29.4,34.8,30.3,23.8,88,73,56,30.06,29.92,10,2,10,0.00
2013-12-2,45.1,38.7,33.4,37.4,33.5,28.5,91,82,69,29.92,29.68,8,2,8,0.03
2013-12-3,51.3,46.6,38.2,48.3,43.9,35.8,93,90,87,29.72,29.65,18,4,18,0.00
2013-12-4,61.2,53.0,43.2,57.6,50.5,41.6,96,91,78,29.71,29.50,24,6,24,0.01
2013-12-5,48.6,30.1,23.2,42.7,22.5,13.3,84,73,64,30.25,29.70,21,11,21,0.00
2013-12-6,23.0,20.3,13.6,14.4,11.6,6.2,74,69,63,30.53,30.22,23,11,23,0.00
2013-12-7,22.5,15.8,8.1,9.7,4.9,2.1,76,63,43,30.68,30.52,18,7,18,0.00
2013-12-8,27.6,23.7,17.3,25.3,18.6,9.1,91,81,69,30.54,29.97,21,6,21,0.00
2013-12-9,26.1,21.9,15.6,23.6,14.6,6.9,90,74,64,30.25,29.98,22,8,22,0.00
2013-12-10,26.6,16.3,4.7,13.2,6.3,-2.1,76,65,53,30.33,30.13,30,6,30,0.00
2013-12-11,24.5,16.7,3.5,17.1,9.4,-5.3,80,72,63,30.61,30.28,22,6,22,0.00
2013-12-12,23.9,12.7,-0.2,9.1,1.5,-8.0,74,61,47,30.61,30.26,21,4,21,0.00
2013-12-13,39.3,26.6,15.9,28.7,18.1,6.8,91,71,50,30.25,30.04,16,3,16,0.03
2013-12-14,33.1,30.4,24.4,31.3,27.9,20.5,93,90,85,30.03,29.76,21,5,21,0.02
2013-12-15,24.4,19.3,13.8,20.5,14.3,9.0,87,81,75,30.11,29.98,27,7,27,0.00
2013-12-16,24.4,19.5,15.1,22.2,16.2,11.1,91,87,81,30.11,30.00,11,3,11,0.00
2013-12-17,29.0,23.1,19.2,25.6,19.6,14.1,91,86,74,30.16,30.02,16,4,16,0.00
2013-12-18,37.6,26.6,10.9,26.6,16.3,6.2,82,66,46,30.22,29.91,24,6,24,0.03
2013-12-19,46.2,41.8,37.0,42.3,35.8,26.9,88,79,66,29.93,29.76,16,6,16,0.43
2013-12-20,58.1,49.4,35.3,55.4,46.8,32.9,94,91,85,29.77,29.64,23,7,23,0.15
2013-12-21,36.5,34.5,32.2,34.9,32.7,30.4,94,93,92,29.79,29.45,23,7,23,1.63
2013-12-22,36.3,33.2,28.1,34.7,30.9,23.6,95,91,83,30.13,29.47,24,6,24,0.05
2013-12-23,28.1,20.1,6.3,23.6,13.8,-1.5,85,76,66,30.50,30.14,24,10,24,0.00
2013-12-24,18.9,11.1,3.7,10.7,2.9,-4.3,74,69,64,30.61,30.40,18,6,18,0.00
2013-12-25,30.6,26.0,18.9,27.2,18.2,10.6,87,72,64,30.40,30.15,27,7,27,0.00
2013-12-26,35.9,30.1,20.0,25.2,21.8,14.5,82,71,62,30.34,30.16,18,6,18,0.00
2013-12-27,45.5,36.0,25.4,34.0,28.9,21.8,88,75,61,30.32,30.15,14,4,14,0.00
2013-12-28,52.8,41.6,34.1,37.7,31.9,28.3,80,69,53,30.15,29.87,19,6,19,0.00
2013-12-29,38.8,31.3,18.8,30.4,26.2,13.7,90,82,68,30.16,29.78,24,9,24,0.00
2013-12-30,18.6,15.5,10.7,13.7,7.3,4.2,81,70,61,30.33,30.16,18,4,18,0.00
2013-12-31,28.8,22.5,15.6,18.8,13.6,8.3,80,68,56,30.38,30.18,19,4,19,0.00
2014-1-1,32.4,25.2,19.5,25.4,20.1,16.3,88,81,75,30.21,30.05,19,6,19,0.00
2014-1-2,19.4,13.6,2.6,16.0,9.1,-3.5,87,82,75,30.42,30.00,32,13,32,0.00